DateTimeUTC,F1_A11,F1_S11,BsB_S11,BsG_S11,BsR_S11,BbsB_S11,BbsG_S11,BbsR_S11,BaB_A11,BaG_A11,BaR_A11,Tu_S11,T_S11,Uu_S11,U_S11,P_S11,T1_A11
2021-07-01T02:00:00Z,00000200,20000000,,,,,,,0000.08,0000.06,-000.31,18.8,25.5,03.3,02.2,0668.7,31.1
2021-07-01T02:01:00Z,00000200,20000000,,,,,,,-000.11,-000.07,0000.13,18.7,25.5,03.3,02.2,0668.7,31.1
2021-07-01T02:02:00Z,00000200,20000000,,,,,,,-000.14,-000.09,-000.16,18.7,25.6,03.4,02.2,0668.7,31.1
2021-07-01T02:03:00Z,00000200,60000000,,,,,,,-000.07,-000.05,-000.16,18.7,25.6,03.4,02.2,0668.7,31.1
2021-07-01T02:04:00Z,00000200,40000000,0000.04,0000.27,0000.15,-000.43,0000.11,0000.03,-000.01,-000.32,0000.05,18.7,25.3,03.3,02.2,0669.7,31.1
2021-07-01T02:05:00Z,00000200,00000000,-000.50,0000.52,0000.11,0000.12,0000.07,-000.07,0000.13,0000.42,0000.27,18.6,25.2,03.3,02.2,0669.8,31.1
2021-07-01T02:06:00Z,00000200,00000000,0000.58,0000.06,0000.01,0000.43,-000.13,0000.17,-000.11,-000.16,-000.07,18.6,25.1,03.4,02.3,0669.8,31.0
2021-07-01T02:07:00Z,00000200,00000000,-000.38,0000.22,0000.09,0000.30,0000.11,0000.34,0000.11,-000.26,-000.05,18.5,25.1,03.4,02.3,0669.8,31.0
2021-07-01T02:08:00Z,00000200,00000000,-000.43,0000.26,0000.32,-000.71,-000.14,0000.20,-000.02,0000.31,0000.09,18.4,25.0,03.4,02.3,0669.8,31.0
2021-07-01T02:09:00Z,00000200,00000000,0000.49,0000.19,0000.24,-000.30,0000.16,0000.20,0000.18,0000.01,0000.12,18.5,25.0,03.4,02.3,0669.8,31.1
2021-07-01T02:10:00Z,00000200,00000000,-000.77,0000.08,0000.11,-000.10,0000.27,-000.05,-000.05,-000.05,0000.07,18.5,25.0,03.4,02.3,0669.8,31.1
2021-07-01T02:11:00Z,00000200,00000000,-000.30,0000.01,0000.10,-000.11,0000.32,-000.08,-000.40,0000.35,-000.16,18.6,25.1,03.3,02.2,0669.8,31.1
2021-07-01T02:12:00Z,00000200,00000000,0000.27,0000.10,0000.36,-000.23,0000.20,0000.36,0000.32,-000.09,0000.28,18.7,25.1,03.5,02.3,0669.8,31.1
2021-07-01T02:13:00Z,00000200,00000000,0000.21,0000.25,0000.44,-000.42,0000.28,0000.09,-000.13,0000.06,-000.17,18.7,25.1,03.3,02.3,0669.8,31.1
2021-07-01T02:14:00Z,00000200,00000000,0000.20,0000.09,0000.24,-000.19,-000.03,-000.25,0000.24,0000.10,0000.04,18.8,25.2,03.3,02.2,0669.8,31.1
2021-07-01T02:15:00Z,00000200,00000000,0000.26,0000.53,0000.06,-000.20,0000.14,0000.10,0000.20,-000.18,-000.02,18.9,25.2,03.4,02.3,0669.9,31.1
2021-07-01T02:16:00Z,00000200,00000000,0000.08,0000.26,-000.10,0000.04,0000.36,0000.14,-000.12,0000.17,-000.20,18.9,25.2,03.3,02.2,0669.9,31.1
2021-07-01T02:17:00Z,00000200,00000000,0000.32,0000.12,0000.12,-000.02,-000.03,0000.32,-000.02,0000.09,0000.21,19.0,25.3,03.3,02.3,0669.9,31.2
2021-07-01T02:18:00Z,00000200,00000000,-000.14,0000.25,0000.19,-000.32,-000.02,-000.05,0000.32,-000.22,0000.16,19.0,25.3,03.2,02.2,0669.9,31.2
2021-07-01T02:19:00Z,00000200,00000000,0000.23,0000.04,0000.48,-000.35,0000.23,0000.50,0000.11,0000.01,-000.03,19.0,25.3,03.3,02.2,0669.9,31.1
2021-07-01T02:20:00Z,00000200,00000000,0000.32,0000.30,0000.11,0000.02,-000.06,-000.05,-000.71,-000.01,-000.20,19.0,25.3,03.2,02.2,0669.9,31.2
2021-07-01T02:21:00Z,00000200,00000000,0000.25,-000.36,0000.21,-000.53,0000.20,0000.28,0000.21,-000.15,0000.05,18.9,25.3,03.1,02.1,0669.9,31.1
2021-07-01T02:22:00Z,00000200,00000000,-000.10,-000.05,0000.15,0000.17,0000.19,0000.13,-000.10,-000.04,-000.25,18.8,25.3,03.1,02.1,0669.9,31.1
2021-07-01T02:23:00Z,00000200,00000000,0000.29,0000.15,0000.14,0000.22,0000.19,-000.26,0000.36,-000.13,0000.44,18.8,25.2,03.3,02.3,0669.9,31.1
2021-07-01T02:24:00Z,00000200,00000000,0000.11,0000.19,-000.06,0000.19,0000.12,0000.24,-000.34,0000.34,-000.34,18.8,25.2,03.3,02.2,0669.9,31.1
2021-07-01T02:25:00Z,00000200,00000000,-000.57,0000.20,0000.17,-000.04,-000.05,0000.12,0000.12,0000.03,0000.39,18.8,25.2,03.3,02.2,0669.9,31.1
2021-07-01T02:26:00Z,00000200,00000000,0000.58,-000.05,-000.00,-000.45,-000.01,0000.31,0000.09,-000.08,-000.16,18.9,25.2,03.2,02.2,0670.0,31.1
2021-07-01T02:27:00Z,00000200,00000000,0000.39,0000.21,0000.21,0000.02,-000.07,0000.27,0000.03,0000.26,0000.00,19.0,25.3,03.2,02.2,0670.0,31.1
2021-07-01T02:28:00Z,00000200,00000000,0000.26,0000.04,0000.01,-000.17,0000.07,0000.05,-000.05,-000.42,0000.09,19.0,25.3,03.2,02.2,0670.0,31.1
2021-07-01T02:29:00Z,00000200,00000000,-000.24,0000.48,0000.25,-000.36,0000.03,0000.39,0000.19,0000.25,0000.13,19.1,25.3,03.2,02.2,0670.0,31.1
2021-07-01T02:30:00Z,00000200,00000000,0000.67,-000.24,0000.12,-000.46,0000.12,0000.32,-000.02,0000.12,0000.03,19.1,25.4,03.2,02.2,0670.0,31.2
2021-07-01T02:31:00Z,00000200,00000000,-000.08,0000.05,-000.14,0000.12,0000.22,-000.20,0000.00,-000.22,-000.02,19.2,25.4,03.2,02.2,0670.0,31.2
2021-07-01T02:32:00Z,00000200,00000000,0000.04,0000.21,-000.14,-000.34,0000.10,-000.25,-000.01,0000.18,-000.10,19.2,25.4,03.1,02.1,0670.0,31.1
2021-07-01T02:33:00Z,00000200,00000000,0000.11,0000.26,-000.05,-000.14,0000.06,-000.02,0000.01,0000.16,-000.04,19.1,25.4,03.1,02.1,0670.0,31.1
2021-07-01T02:34:00Z,00000200,00000000,0000.27,-000.07,0000.36,-000.29,0000.21,0000.16,-000.14,-000.24,0000.13,19.0,25.4,03.2,02.2,0670.0,31.1
2021-07-01T02:35:00Z,00000200,00000000,0000.43,0000.23,-000.00,0000.03,0000.04,-000.19,0000.02,0000.10,-000.21,18.9,25.3,03.2,02.2,0670.0,31.1
2021-07-01T02:36:00Z,00000200,00000000,0000.44,0000.09,0000.16,0000.10,0000.19,0000.16,0000.31,0000.09,0000.14,18.9,25.3,03.3,02.2,0670.0,31.1
2021-07-01T02:37:00Z,00000200,00000000,-000.23,0000.38,0000.05,0000.08,0000.04,-000.02,-000.05,-000.12,0000.03,18.8,25.2,03.3,02.2,0669.9,31.1
2021-07-01T02:38:00Z,00000200,00000000,0000.26,-000.13,0000.41,-000.30,0000.13,0000.13,0000.39,0000.41,0000.23,18.8,25.2,03.3,02.2,0669.9,31.1
2021-07-01T02:39:00Z,00000200,00000000,0000.06,0000.36,0000.06,0000.27,0000.18,0000.11,-000.30,-000.29,-000.13,18.8,25.2,03.4,02.3,0669.9,31.1
2021-07-01T02:40:00Z,00000200,00000000,-000.01,0000.25,-000.17,-000.15,0000.14,0000.26,0000.13,0000.39,0000.28,18.8,25.2,03.4,02.3,0669.9,31.1
2021-07-01T02:41:00Z,00000200,00000000,-000.08,-000.02,0000.11,0000.24,-000.11,0000.34,0000.16,-000.04,0000.04,18.9,25.2,03.3,02.2,0669.9,31.1
2021-07-01T02:42:00Z,00000200,00000000,0000.33,-000.14,0000.17,-000.03,0000.03,-000.01,-000.02,-000.02,-000.08,18.9,25.3,03.3,02.3,0670.0,31.1
2021-07-01T02:43:00Z,00000200,00000000,0000.29,0000.16,0000.06,0000.31,0000.19,-000.12,0000.12,0000.10,0000.21,19.0,25.3,03.3,02.2,0670.0,31.1
2021-07-01T02:44:00Z,00000200,00000000,0000.04,-000.03,0000.13,-000.34,0000.16,-000.07,-000.12,0000.10,-000.17,19.0,25.3,03.3,02.3,0669.9,31.2
2021-07-01T02:45:00Z,00000200,00000000,-000.19,-000.10,-000.04,-000.13,0000.05,-000.06,0000.34,-000.08,0000.38,19.1,25.4,03.4,02.3,0670.0,31.1
2021-07-01T02:46:00Z,00000200,00000000,0000.15,0000.05,0000.11,0000.15,0000.27,0000.06,-000.41,-000.30,-000.49,19.1,25.4,03.3,02.3,0669.9,31.2
2021-07-01T02:47:00Z,00000200,00000000,0000.00,-000.09,0000.15,-000.82,0000.28,0000.32,0000.24,0000.28,0000.07,19.0,25.4,03.4,02.3,0670.0,31.1
2021-07-01T02:48:00Z,00000200,00000000,-000.00,0000.00,0000.04,-000.06,0000.03,0000.09,-000.06,0000.24,0000.12,18.9,25.3,03.4,02.3,0670.0,31.1
2021-07-01T02:49:00Z,00000200,00000000,-000.69,0000.20,0000.18,-000.64,0000.18,0000.25,0000.08,-000.18,-000.06,18.9,25.3,03.4,02.3,0669.9,31.1
2021-07-01T02:50:00Z,00000200,00000000,0000.31,0000.28,0000.29,0000.13,-000.09,0000.09,-000.05,0000.12,-000.11,18.8,25.2,03.4,02.3,0670.0,31.1
2021-07-01T02:51:00Z,00000200,00000000,0000.33,0000.46,-000.03,-000.25,0000.05,-000.02,-000.24,-000.22,-000.05,18.7,25.2,03.5,02.3,0670.0,31.1
2021-07-01T02:52:00Z,00000200,00000000,0000.46,0000.04,0000.25,-000.54,-000.03,0000.26,0000.38,0000.19,0000.27,18.7,25.1,03.4,02.3,0669.9,31.0
2021-07-01T02:53:00Z,00000200,00000000,0000.55,-000.00,0000.06,-000.32,0000.11,0000.26,0000.04,-000.21,-000.00,18.6,25.1,03.5,02.4,0669.9,31.0
2021-07-01T02:54:00Z,00000200,00000000,-000.17,0000.25,0000.15,-000.47,-000.38,0000.37,-000.24,0000.30,-000.14,18.6,25.1,03.5,02.4,0670.0,31.1
2021-07-01T02:55:00Z,00000200,00000000,0000.10,0000.11,0000.16,0000.31,-000.06,0000.21,0000.39,0000.15,0000.44,18.7,25.1,03.5,02.3,0670.0,31.1
2021-07-01T02:56:00Z,00000200,00000000,0000.02,-000.04,-000.24,0000.16,0000.08,-000.11,-000.03,-000.39,-000.28,18.7,25.1,03.5,02.4,0670.0,31.1
2021-07-01T02:57:00Z,00000200,40000000,,,,,,,0000.08,0000.56,0000.32,18.8,25.2,03.1,02.1,0670.0,31.1
2021-07-01T02:58:00Z,00000200,60000000,,,,,,,-000.18,-000.47,-000.12,18.6,25.4,03.4,02.2,0669.0,31.1
2021-07-01T02:59:00Z,00000200,20000000,,,,,,,0000.22,0000.52,0000.12,18.6,25.5,03.3,02.2,0669.0,31.1
